H1 CPF 2 NER 2022 2 22 9 053 01 glonass141 H2 1908801 9141 44850 2022 2 22 0 0 0 2022 2 25 23 45 0 900 1 1 0 0 0 1 H9 10 0 59632 0.00000 0 -21214028.149 12974030.335 5687728.198 10 0 59632 900.00000 0 -21587364.127 13347838.309 2518052.364 10 0 59632 1800.00000 0 -21596013.131 13544440.406 -700554.598 10 0 59632 2700.00000 0 -21266193.900 13514527.190 -3905536.834 10 0 59632 3600.00000 0 -20635253.441 13216408.242 -7034550.819 10 0 59632 4500.00000 0 -19749978.232 12618004.151 -10026685.054 10 0 59632 5400.00000 0 -18664522.882 11698445.125 -12823655.038 10 0 59632 6300.00000 0 -17438043.738 10449206.465 -15370949.226 10 0 59632 7200.00000 0 -16132137.740 8874730.769 -17618902.430 10 0 59632 8100.00000 0 -14808195.297 6992508.476 -19523674.727 10 0 59632 9000.00000 0 -13524779.630 4832611.356 -21048115.853 10 0 59632 9900.00000 0 -12335144.033 2436697.011 -22162497.426 10 0 59632 10800.00000 0 -11284992.423 -143475.155 -22845098.218 10 0 59632 11700.00000 0 -10410578.141 -2847955.200 -23082630.769 10 0 59632 12600.00000 0 -9737221.378 -5610861.606 -22870500.862 10 0 59632 13500.00000 0 -9278307.637 -8362893.818 -22212894.930 10 0 59632 14400.00000 0 -9034808.977 -11033993.425 -21122693.848 10 0 59632 15300.00000 0 -8995347.491 -13556042.830 -19621215.152 10 0 59632 16200.00000 0 -9136797.284 -15865488.735 -17737789.131 10 0 59632 17100.00000 0 -9425398.262 -17905781.109 -15509177.560 10 0 59632 18000.00000 0 -9818333.380 -19629526.040 -12978847.028 10 0 59632 18900.00000 0 -10265701.199 -21000263.229 -10196111.722 10 0 59632 19800.00000 0 -10712799.081 -21993794.830 -7215163.075 10 0 59632 20700.00000 0 -11102619.175 -22599011.294 -4094006.073 10 0 59632 21600.00000 0 -11378450.651 -22818181.391 -893323.697 10 0 59632 22500.00000 0 -11486477.341 -22666696.110 2324707.701 10 0 59632 23400.00000 0 -11378260.526 -22172279.173 5497628.318 10 0 59632 24300.00000 0 -11013001.807 -21373699.290 8563906.296 10 0 59632 25200.00000 0 -10359490.599 -20319039.923 11464126.939 10 0 59632 26100.00000 0 -9397654.447 -19063600.590 14142136.840 10 0 59632 27000.00000 0 -8119647.208 -17667518.699 16546121.357 10 0 59632 27900.00000 0 -6530429.611 -16193211.971 18629595.479 10 0 59632 28800.00000 0 -4647817.966 -14702748.482 20352290.024 10 0 59632 29700.00000 0 -2501998.718 -13255253.702 21680917.415 10 0 59632 30600.00000 0 -134528.447 -11904461.889 22589803.644 10 0 59632 31500.00000 0 2403139.988 -10696512.843 23061375.456 10 0 59632 32400.00000 0 5051545.319 -9668084.575 23086494.450 10 0 59632 33300.00000 0 7745443.157 -8844938.493 22664632.351 10 0 59632 34200.00000 0 10416278.222 -8240936.740 21803884.298 10 0 59632 35100.00000 0 12994803.104 -7857571.976 20520819.708 10 0 59632 36000.00000 0 15413736.872 -7684028.871 18840172.883 10 0 59632 36900.00000 0 17610354.860 -7697774.903 16794378.245 10 0 59632 37800.00000 0 19528903.408 -7865656.117 14422957.825 10 0 59632 38700.00000 0 21122740.009 -8145452.624 11771771.249 10 0 59632 39600.00000 0 22356109.970 -8487829.305 8892141.283 10 0 59632 40500.00000 0 23205485.379 -8838600.350 5839870.475 10 0 59632 41400.00000 0 23660409.851 -9141212.713 2674166.850 10 0 59632 42300.00000 0 23723812.807 -9339343.793 -543501.113 10 0 59632 43200.00000 0 23411779.184 -9379503.235 -3750598.273 10 0 59632 44100.00000 0 22752783.313 -9213527.985 -6884742.048 10 0 59632 45000.00000 0 21786418.372 -8800863.730 -9884922.695 10 0 59632 45900.00000 0 20561674.417 -8110534.421 -12692700.089 10 0 59632 46800.00000 0 19134837.305 -7122714.568 -15253352.657 10 0 59632 47700.00000 0 17567097.164 -5829835.643 -17516954.903 10 0 59632 48600.00000 0 15921967.618 -4237177.668 -19439361.463 10 0 59632 49500.00000 0 14262625.030 -2362918.943 -20983077.571 10 0 59632 50400.00000 0 12649280.583 -237640.002 -22117998.141 10 0 59632 51300.00000 0 11136696.447 2096698.876 -22822000.533 10 0 59632 52200.00000 0 9771951.039 4588264.877 -23081379.135 10 0 59632 53100.00000 0 8592547.669 7177282.096 -22891113.135 10 0 59632 54000.00000 0 7624945.993 9798302.953 -22254962.347 10 0 59632 54900.00000 0 6883577.586 12382726.727 -21185389.422 10 0 59632 55800.00000 0 6370386.236 14861459.883 -19703310.286 10 0 59632 56700.00000 0 6074911.077 17167606.947 -17837678.088 10 0 59632 57600.00000 0 5974907.603 19239079.454 -15624909.280 10 0 59632 58500.00000 0 6037478.719 21021013.944 -13108163.636 10 0 59632 59400.00000 0 6220666.315 22467898.241 -10336492.936 10 0 59632 60300.00000 0 6475434.392 23545317.664 -7363875.618 10 0 59632 61200.00000 0 6747958.334 24231248.983 -4248157.085 10 0 59632 62100.00000 0 6982122.075 24516849.184 -1049917.094 10 0 59632 63000.00000 0 7122116.433 24406707.561 2168713.031 10 0 59632 63900.00000 0 7115027.966 23918552.231 5345259.625 10 0 59632 64800.00000 0 6913308.428 23082425.224 8418118.530 10 0 59632 65700.00000 0 6477020.424 21939362.377 11327745.870 10 0 59632 66600.00000 0 5775764.617 20539634.839 14017804.837 10 0 59632 67500.00000 0 4790207.580 18940626.906 16436246.810 10 0 59632 68400.00000 0 3513146.290 17204439.588 18536306.817 10 0 59632 69300.00000 0 1950064.763 15395320.211 20277395.142 10 0 59632 70200.00000 0 119159.454 13577024.947 21625869.231 10 0 59632 71100.00000 0 -1949168.143 11810223.385 22555672.390 10 0 59632 72000.00000 0 -4213331.277 10150052.142 23048828.184 10 0 59632 72900.00000 0 -6622048.909 8643917.915 23095782.117 10 0 59632 73800.00000 0 -9116247.531 7329639.965 22695584.705 10 0 59632 74700.00000 0 -11631296.599 6234008.036 21855912.684 10 0 59632 75600.00000 0 -14099486.872 5371814.630 20592927.787 10 0 59632 76500.00000 0 -16452650.751 4745401.220 18930975.093 10 0 59632 77400.00000 0 -18624817.519 4344737.000 16902125.758 10 0 59632 78300.00000 0 -20554794.635 4148026.887 14545571.558 10 0 59632 79200.00000 0 -22188568.649 4122823.642 11906881.395 10 0 59632 80100.00000 0 -23481426.102 4227598.016 9037132.668 10 0 59632 81000.00000 0 -24399705.858 4413701.466 5991932.914 10 0 59632 81900.00000 0 -24922109.042 4627639.268 2830349.560 10 0 59632 82800.00000 0 -25040510.782 4813558.359 -386232.109 10 0 59632 83700.00000 0 -24760238.571 4915844.618 -3595300.877 10 0 59632 84600.00000 0 -24099804.315 4881719.148 -6734438.160 10 0 59632 85500.00000 0 -23090100.217 4663722.618 -9742538.836 10 0 59633 0.00000 0 -21773091.523 4221981.037 -12561009.545 10 0 59633 900.00000 0 -20200059.789 3526154.941 -15134921.579 10 0 59633 1800.00000 0 -18429472.211 2556988.135 -17414090.923 10 0 59633 2700.00000 0 -16524564.398 1307387.585 -19354068.449 10 0 59633 3600.00000 0 -14550740.311 -217012.697 -20917016.125 10 0 59633 4500.00000 0 -12572898.594 -1997829.652 -22072452.915 10 0 59633 5400.00000 0 -10652798.307 -4004453.615 -22797855.021 10 0 59633 6300.00000 0 -8846575.140 -6195094.599 -23079098.446 10 0 59633 7200.00000 0 -7202512.729 -8518309.394 -22910735.080 10 0 59633 8100.00000 0 -5759162.550 -10914946.075 -22296097.009 10 0 59633 9000.00000 0 -4543890.882 -13320424.776 -21247227.185 10 0 59633 9900.00000 0 -3571913.108 -15667259.197 -19784638.142 10 0 59633 10800.00000 0 -2845854.661 -17887713.246 -17936903.872 10 0 59633 11700.00000 0 -2355855.522 -19916481.474 -15740093.317 10 0 59633 12600.00000 0 -2080212.079 -21693280.936 -13237057.147 10 0 59633 13500.00000 0 -1986527.255 -23165246.022 -10476582.405 10 0 59633 14400.00000 0 -2033318.377 -24289026.221 -7512432.213 10 0 59633 15300.00000 0 -2172012.903 -25032499.414 -4402290.131 10 0 59633 16200.00000 0 -2349245.915 -25376029.758 -1206630.512 10 0 59633 17100.00000 0 -2509360.715 -25313218.563 2012462.454 10 0 59633 18000.00000 0 -2597005.672 -24851118.027 5192503.293 10 0 59633 18900.00000 0 -2559716.755 -24009900.392 8271817.537 10 0 59633 19800.00000 0 -2350376.256 -22821997.896 11190734.102 10 0 59633 20700.00000 0 -1929443.883 -21330750.919 13892734.684 10 0 59633 21600.00000 0 -1266866.351 -19588622.002 16325538.529 10 0 59633 22500.00000 0 -343585.373 -17655051.086 18442102.422 10 0 59633 23400.00000 0 847418.962 -15594041.775 20201517.658 10 0 59633 24300.00000 0 2300593.104 -13471578.988 21569788.023 10 0 59633 25200.00000 0 3997805.826 -11352984.787 22520475.178 10 0 59633 26100.00000 0 5908875.539 -9300321.260 23035200.240 10 0 59633 27000.00000 0 7992608.180 -7369946.988 23103993.010 10 0 59633 27900.00000 0 10198303.817 -5610327.021 22725482.854 10 0 59633 28800.00000 0 12467670.966 -4060185.850 21906927.847 10 0 59633 29700.00000 0 14737070.961 -2747078.769 20664081.450 10 0 59633 30600.00000 0 16940001.119 -1686439.922 19020898.645 10 0 59633 31500.00000 0 19009715.180 -881146.019 17009086.146 10 0 59633 32400.00000 0 20881873.668 -321613.544 14667504.023 10 0 59633 33300.00000 0 22497114.884 13574.617 12041428.716 10 0 59633 34200.00000 0 23803439.889 156539.054 9181690.239 10 0 59633 35100.00000 0 24758311.960 148517.305 6143698.823 10 0 59633 36000.00000 0 25330382.188 37887.232 2986378.752 10 0 59633 36900.00000 0 25500767.960 -122116.647 -228970.615 10 0 59633 37800.00000 0 25263829.441 -275897.413 -3439864.840 10 0 59633 38700.00000 0 24627409.974 -368094.743 -6583852.205 10 0 59633 39600.00000 0 23612528.845 -346177.862 -9599734.997 10 0 59633 40500.00000 0 22252538.039 -162921.453 -12428769.727 10 0 59633 41400.00000 0 20591777.391 221341.945 -15015821.898 10 0 59633 42300.00000 0 18683784.064 836790.166 -17310451.595 10 0 59633 43200.00000 0 16589131.274 1702584.044 -19267907.724 10 0 59633 44100.00000 0 14372987.105 2825810.964 -20850010.509 10 0 59633 45000.00000 0 12102496.211 4200945.852 -22025904.223 10 0 59633 45900.00000 0 9844094.687 5809853.973 -22772664.912 10 0 59633 46800.00000 0 7660871.107 7622336.879 -23075750.933 10 0 59633 47700.00000 0 5610084.665 9597199.522 -22929287.328 10 0 59633 48600.00000 0 3740944.467 11683794.448 -22336178.593 10 0 59633 49500.00000 0 2092742.683 13823978.631 -21308047.780 10 0 59633 50400.00000 0 693419.164 15954400.901 -19865003.478 10 0 59633 51300.00000 0 -441383.390 18009023.957 -18035239.607 10 0 59633 52200.00000 0 -1308735.645 19921775.003 -15854476.316 10 0 59633 53100.00000 0 -1918293.493 21629213.524 -13365253.547 10 0 59633 54000.00000 0 -2291633.106 23073104.193 -10616091.651 10 0 59633 54900.00000 0 -2461079.435 24202786.923 -7660536.190 10 0 59633 55800.00000 0 -2468079.729 24977244.783 -4556106.381 10 0 59633 56700.00000 0 -2361192.885 25366783.506 -1363168.458 10 0 59633 57600.00000 0 -2193781.391 25354252.820 1856243.379 10 0 59633 58500.00000 0 -2021504.910 24935759.373 5039634.772 10 0 59633 59400.00000 0 -1899722.527 24120842.531 8125263.896 10 0 59633 60300.00000 0 -1880914.101 22932106.926 11053335.332 10 0 59633 61200.00000 0 -2012229.797 21404328.386 13767152.068 10 0 59633 62100.00000 0 -2333271.102 19583071.644 16214203.846 10 0 59633 63000.00000 0 -2874196.453 17522878.283 18347171.653 10 0 59633 63900.00000 0 -3654230.719 15285100.840 20124830.024 10 0 59633 64800.00000 0 -4680640.768 12935473.111 21512831.061 10 0 59633 65700.00000 0 -5948219.943 10541517.059 22484356.460 10 0 59633 66600.00000 0 -7439303.143 8169893.066 23020626.217 10 0 59633 67500.00000 0 -9124312.539 5883802.055 23111255.350 10 0 59633 68400.00000 0 -10962812.181 3740545.673 22754452.522 10 0 59633 69300.00000 0 -12905028.950 1789344.096 21957057.044 10 0 59633 70200.00000 0 -14893778.258 69500.431 20734413.435 10 0 59633 71100.00000 0 -16866716.226 -1391013.450 19110085.305 10 0 59633 72000.00000 0 -18758826.348 -2576491.765 17115413.068 10 0 59633 72900.00000 0 -20505038.728 -3483912.143 14788922.680 10 0 59633 73800.00000 0 -22042873.983 -4122818.271 12175595.246 10 0 59633 74700.00000 0 -23315002.141 -4514672.657 9326010.152 10 0 59633 75600.00000 0 -24271609.848 -4691706.455 6295376.842 10 0 59633 76500.00000 0 -24872476.413 -4695314.298 3142472.843 10 0 59633 77400.00000 0 -25088670.720 -4574061.408 -71492.047 10 0 59633 78300.00000 0 -24903796.513 -4381386.984 -3284063.740 10 0 59633 79200.00000 0 -24314732.098 -4173101.073 -6432760.817 10 0 59633 80100.00000 0 -23331831.645 -4004781.375 -9456296.220 10 0 59633 81000.00000 0 -21978577.988 -3929181.120 -12295779.098 10 0 59633 81900.00000 0 -20290700.036 -3993759.093 -14895872.384 10 0 59633 82800.00000 0 -18314790.825 -4238437.975 -17205882.359 10 0 59633 83700.00000 0 -16106483.500 -4693687.623 -19180757.876 10 0 59633 84600.00000 0 -13728261.435 -5379016.233 -20781978.817 10 0 59633 85500.00000 0 -11246994.350 -6301934.841 -21978315.580 10 0 59634 0.00000 0 -8731304.114 -7457440.404 -22746444.203 10 0 59634 900.00000 0 -6248869.447 -8828041.273 -23071405.110 10 0 59634 1800.00000 0 -3863786.082 -10384323.388 -22946895.406 10 0 59634 2700.00000 0 -1634088.378 -12086036.175 -22375390.470 10 0 59634 3600.00000 0 390460.691 -13883651.362 -21368091.503 10 0 59634 4500.00000 0 2170220.535 -15720329.841 -19944700.844 10 0 59634 5400.00000 0 3677088.145 -17534213.702 -18133029.779 10 0 59634 6300.00000 0 4895419.572 -19260946.862 -15968446.940 10 0 59634 7200.00000 0 5822420.692 -20836317.931 -13493178.694 10 0 59634 8100.00000 0 6467992.951 -22198913.953 -10755475.833 10 0 59634 9000.00000 0 6854042.846 -23292673.202 -7808663.500 10 0 59634 9900.00000 0 7013286.550 -24069229.615 -4710093.780 10 0 59634 10800.00000 0 6987602.412 -24489950.494 -1520022.123 10 0 59634 11700.00000 0 6826003.004 -24527582.210 1699569.790 10 0 59634 12600.00000 0 6582314.129 -24167435.431 4886181.071 10 0 59634 13500.00000 0 6312660.281 -23408060.963 7978004.703 10 0 59634 14400.00000 0 6072863.709 -22261388.828 10915122.910 10 0 59634 15300.00000 0 5915867.364 -20752325.747 13640661.720 10 0 59634 16200.00000 0 5889290.509 -18917828.774 16101882.885 10 0 59634 17100.00000 0 6033219.674 -16805494.375 18251192.855 10 0 59634 18000.00000 0 6378327.419 -14471722.159 20047050.377 10 0 59634 18900.00000 0 6944397.374 -11979529.580 21454756.543 10 0 59634 19800.00000 0 7739316.964 -9396107.837 22447113.432 10 0 59634 20700.00000 0 8758579.794 -6790219.523 23004939.941 10 0 59634 21600.00000 0 9985318.658 -4229544.521 23117436.003 10 0 59634 22500.00000 0 11390868.411 -1778082.482 22782388.973 10 0 59634 23400.00000 0 12935836.193 506282.149 22006218.526 10 0 59634 24300.00000 0 14571635.804 2573953.406 20803859.112 10 0 59634 25200.00000 0 16242423.891 4385446.808 19198481.625 10 0 59634 26100.00000 0 17887358.946 5912787.548 17221058.632 10 0 59634 27000.00000 0 19443090.519 7140426.653 14909780.252 10 0 59634 27900.00000 0 20846376.117 8065637.438 12309330.356 10 0 59634 28800.00000 0 22036717.309 8698375.761 9470035.621 10 0 59634 29700.00000 0 22958905.163 9060609.825 6446902.463 10 0 59634 30600.00000 0 23565368.166 9185147.349 3298559.262 10 0 59634 31500.00000 0 23818223.331 9114009.045 86123.751 10 0 59634 32400.00000 0 23690943.095 8896416.770 -3127982.876 10 0 59634 33300.00000 0 23169566.257 8586481.237 -6281252.033 10 0 59634 34200.00000 0 22253400.151 8240687.366 -9312309.739 10 0 59634 35100.00000 0 20955182.584 7915284.318 -12162120.024 10 0 59634 36000.00000 0 19300694.886 7663691.714 -14775145.270 10 0 59634 36900.00000 0 17327840.808 7534033.156 -17100439.692 10 0 59634 37800.00000 0 15085228.757 7566902.966 -19092653.573 10 0 59634 38700.00000 0 12630316.030 7793462.220 -20712927.678 10 0 59634 39600.00000 0 10027192.479 8233946.156 -21929659.540 10 0 59634 40500.00000 0 7344096.329 8896647.450 -22719126.084 10 0 59634 41400.00000 0 4650766.162 9777419.506 -23065950.112 10 0 59634 42300.00000 0 2015740.083 10859721.642 -22963401.308 10 0 59634 43200.00000 0 -496284.963 12115204.870 -22413525.996 10 0 59634 44100.00000 0 -2826923.418 13504813.951 -21427103.253 10 0 59634 45000.00000 0 -4926297.920 14980359.267 -20023428.538 10 0 59634 45900.00000 0 -6754871.539 16486492.162 -18229929.495 10 0 59634 46800.00000 0 -8284839.927 17963000.170 -16081621.866 10 0 59634 47700.00000 0 -9501026.473 19347324.977 -13620416.747 10 0 59634 48600.00000 0 -10401244.866 20577196.584 -10894293.377 10 0 59634 49500.00000 0 -10996115.997 21593272.261 -7956354.270 10 0 59634 50400.00000 0 -11308349.199 22341668.834 -4863781.990 10 0 59634 51300.00000 0 -11371520.536 22776281.501 -1676718.681 10 0 59634 52200.00000 0 -11228401.911 22860791.686 1542909.088 10 0 59634 53100.00000 0 -10928913.539 22570279.744 4732596.539 10 0 59634 54000.00000 0 -10527787.927 21892375.291 7830474.097 10 0 59634 54900.00000 0 -10082045.184 20827897.526 10776504.232 10 0 59634 55800.00000 0 -9648386.969 19390959.471 13513638.554 10 0 59634 56700.00000 0 -9280619.229 17608532.471 15988913.271 10 0 59634 57600.00000 0 -9027212.105 15519489.682 18154462.608 10 0 59634 58500.00000 0 -8929099.174 13173168.737 19968431.681 10 0 59634 59400.00000 0 -9017807.788 10627513.319 21395772.509 10 0 59634 60300.00000 0 -9313998.231 7946870.320 22408909.249 10 0 59634 61200.00000 0 -9826472.283 5199533.101 22988261.086 10 0 59634 62100.00000 0 -10551692.400 2455131.341 23122613.904 10 0 59634 63000.00000 0 -11473831.666 -218026.118 22809334.355 10 0 59634 63900.00000 0 -12565352.948 -2755547.080 22054422.605 10 0 59634 64800.00000 0 -13788094.022 -5099384.883 20872402.642 10 0 59634 65700.00000 0 -15094814.681 -7200001.380 19286051.699 10 0 59634 66600.00000 0 -16431142.699 -9018175.668 17325973.012 10 0 59634 67500.00000 0 -17737838.944 -10526384.511 15030018.835 10 0 59634 68400.00000 0 -18953288.322 -11709697.698 12442573.310 10 0 59634 69300.00000 0 -20016113.384 -12566151.165 9613707.523 10 0 59634 70200.00000 0 -20867801.689 -13106582.288 6598221.650 10 0 59634 71100.00000 0 -21455236.744 -13353933.933 3454591.516 10 0 59634 72000.00000 0 -21733025.659 -13342056.054 243839.251 10 0 59634 72900.00000 0 -21665524.518 -13114054.951 -2971650.432 10 0 59634 73800.00000 0 -21228474.666 -12720259.599 -6129345.338 10 0 59634 74700.00000 0 -20410179.073 -12215890.945 -9167788.043 10 0 59634 75600.00000 0 -19212167.170 -11658533.139 -12027800.786 10 0 59634 76500.00000 0 -17649318.048 -11105514.373 -14653648.502 10 0 59634 77400.00000 0 -15749434.943 -10611309.176 -16994136.147 10 0 59634 78300.00000 0 -13552287.251 -10225073.337 -19003617.833 10 0 59634 79200.00000 0 -11108159.005 -9988417.083 -20642897.107 10 0 59634 80100.00000 0 -8475963.889 -9933512.022 -21879999.932 10 0 59634 81000.00000 0 -5721005.249 -10081613.090 -22690804.717 10 0 59634 81900.00000 0 -2912474.576 -10442058.973 -23059516.736 10 0 59634 82800.00000 0 -120793.168 -11011793.944 -22978977.469 10 0 59634 83700.00000 0 2585091.978 -11775431.773 -22450802.886 10 0 59634 84600.00000 0 5140345.103 -12705859.163 -21485348.118 10 0 59634 85500.00000 0 7486701.397 -13765353.125 -20101499.497 10 0 59635 0.00000 0 9574647.085 -14907164.694 -18326298.604 10 0 59635 900.00000 0 11365230.599 -16077502.296 -16194405.088 10 0 59635 1800.00000 0 12831427.475 -17217828.816 -13747411.827 10 0 59635 2700.00000 0 13959007.128 -18267376.876 -11033023.252 10 0 59635 3600.00000 0 14746864.251 -19165773.946 -8104115.879 10 0 59635 4500.00000 0 15206804.194 -19855666.598 -5017699.337 10 0 59635 5400.00000 0 15362793.571 -20285232.687 -1833799.087 10 0 59635 6300.00000 0 15249709.951 -20410475.346 1385716.685 10 0 59635 7200.00000 0 14911645.523 -20197202.161 4578342.389 10 0 59635 8100.00000 0 14399838.168 -19622606.471 7682148.690 10 0 59635 9000.00000 0 13770318.725 -18676384.731 10636980.761 10 0 59635 9900.00000 0 13081374.634 -17361343.564 13385617.856 10 0 59635 10800.00000 0 12390937.372 -15693471.618 15874872.263 10 0 59635 11700.00000 0 11754003.628 -13701473.592 18056607.178 10 0 59635 12600.00000 0 11220198.269 -11425786.140 19888654.822 10 0 59635 13500.00000 0 10831580.674 -8917116.506 21335618.465 10 0 59635 14400.00000 0 10620785.534 -6234564.100 22369544.243 10 0 59635 15300.00000 0 10609575.104 -3443402.135 22970451.153 10 0 59635 16200.00000 0 10807862.718 -612609.938 23126710.189 10 0 59635 17100.00000 0 11213247.980 2187743.521 22835266.158 10 0 59635 18000.00000 0 11811083.001 4889158.338 22101698.297 10 0 59635 18900.00000 0 12575067.329 7427296.481 20940118.486 10 0 59635 19800.00000 0 13468347.551 9744403.169 19372908.462 10 0 59635 20700.00000 0 14445076.744 11791457.875 17430300.126 10 0 59635 21600.00000 0 15452369.886 13529966.983 15149805.748 10 0 59635 22500.00000 0 16432574.713 14933324.319 12575507.492 10 0 59635 23400.00000 0 17325763.980 15987683.187 9757218.499 10 0 59635 24300.00000 0 18072345.341 16692303.521 6749530.267 10 0 59635 25200.00000 0 18615679.507 17059359.286 3610763.545 10 0 59635 26100.00000 0 18904596.257 17113213.726 401842.315 10 0 59635 27000.00000 0 18895701.534 16889192.388 -2814887.718 10 0 59635 27900.00000 0 18555377.006 16431905.231 -5976873.187 10 0 59635 28800.00000 0 17861385.966 15793188.345 -9022575.506 10 0 59635 29700.00000 0 16804015.769 15029752.327 -11892677.181 10 0 59635 30600.00000 0 15386706.401 14200637.123 -14531247.501 10 0 59635 31500.00000 0 13626136.543 13364581.653 -16886843.672 10 0 59635 32400.00000 0 11551761.500 12577420.433 -18913524.867 10 0 59635 33300.00000 0 9204820.738 11889618.342 -20571758.385 10 0 59635 34200.00000 0 6636855.435 11344048.881 -21829199.363 10 0 59635 35100.00000 0 3907797.257 10974110.832 -22661328.216 10 0 59635 36000.00000 0 1083707.844 10802263.676 -23051932.993 10 0 59635 36900.00000 0 -1765736.657 10839044.223 -22993427.020 10 0 59635 37800.00000 0 -4569910.980 11082606.196 -22486995.668 10 0 59635 38700.00000 0 -7259944.781 11518802.172 -21542569.529 10 0 59635 39600.00000 0 -9771352.395 12121804.085 -20178624.837 10 0 59635 40500.00000 0 -12046478.774 12855235.492 -18421815.412 10 0 59635 41400.00000 0 -14036659.971 13673767.042 -16306443.753 10 0 59635 42300.00000 0 -15704008.573 14525106.845 -13873782.240 10 0 59635 43200.00000 0 -17022750.673 15352300.727 -11171258.288 10 0 59635 44100.00000 0 -17980059.903 16096244.251 -8251520.075 10 0 59635 45000.00000 0 -18576355.431 16698299.552 -5171401.891 10 0 59635 45900.00000 0 -18825053.547 17102905.741 -1990810.088 10 0 59635 46800.00000 0 -18751785.541 17260072.195 1228447.929 10 0 59635 47700.00000 0 -18393116.983 17127649.270 4423868.113 10 0 59635 48600.00000 0 -17794824.396 16673280.688 7533463.699 10 0 59635 49500.00000 0 -17009803.603 15875955.612 10496964.828 10 0 59635 50400.00000 0 -16095699.135 14727095.477 13256980.609 10 0 59635 51300.00000 0 -15112355.228 13231130.371 15760101.550 10 0 59635 52200.00000 0 -14119195.859 11405541.133 17957921.829 10 0 59635 53100.00000 0 -13172643.596 9280365.581 19807962.649 10 0 59635 54000.00000 0 -12323684.898 6897189.342 21274480.194 10 0 59635 54900.00000 0 -11615682.870 4307662.716 22329144.011 10 0 59635 55800.00000 0 -11082527.933 1571604.429 22951574.060 10 0 59635 56700.00000 0 -10747202.639 -1245230.460 23129727.284 10 0 59635 57600.00000 0 -10620819.692 -4073627.585 22860127.127 10 0 59635 58500.00000 0 -10702172.811 -6843534.498 22147932.000 10 0 59635 59400.00000 0 -10977819.015 -9486719.521 21006841.370 10 0 59635 60300.00000 0 -11422689.196 -11939360.062 19458840.744 10 0 59635 61200.00000 0 -12001202.114 -14144454.718 17533789.530 10 0 59635 62100.00000 0 -12668836.198 -16053960.445 15268858.428 10 0 59635 63000.00000 0 -13374094.425 -17630566.928 12707825.650 10 0 59635 63900.00000 0 -14060780.938 -18849034.656 9900244.067 10 0 59635 64800.00000 0 -14670494.671 -19697040.921 6900493.888 10 0 59635 65700.00000 0 -15145235.580 -20175498.019 3766737.934 10 0 59635 66600.00000 0 -15430013.723 -20298329.715 559799.012 10 0 59635 67500.00000 0 -15475350.623 -20091714.653 -2658019.350 10 0 59635 68400.00000 0 -15239566.267 -19592827.915 -5824145.872 10 0 59635 69300.00000 0 -14690753.552 -18848133.235 -8876964.115 10 0 59635 70200.00000 0 -13808354.875 -17911297.719 -11757020.158 10 0 59635 71100.00000 0 -12584272.017 -16840817.193 -14408190.867 10 0 59635 72000.00000 0 -11023460.292 -15697452.898 -16778788.757 10 0 59635 72900.00000 0 -9143979.672 -14541588.516 -18822580.832 10 0 59635 73800.00000 0 -6976498.737 -13430619.994 -20499700.525 10 0 59635 74700.00000 0 -4563270.716 -12416489.350 -21777434.014 10 0 59635 75600.00000 0 -1956623.268 -11543467.415 -22630864.998 10 0 59635 76500.00000 0 782975.605 -10846279.760 -23043364.950 10 0 59635 77400.00000 0 3589195.034 -10348655.340 -23006919.042 10 0 59635 78300.00000 0 6392367.205 -10062359.163 -22522281.437 10 0 59635 79200.00000 0 9122156.322 -9986749.565 -21598957.030 10 0 59635 80100.00000 0 11710259.058 -10108878.253 -20255010.299 10 0 59635 81000.00000 0 14093023.857 -10404128.041 -18516705.378 10 0 59635 81900.00000 0 16213879.898 -10837360.318 -16417984.797 10 0 59635 82800.00000 0 18025474.658 -11364522.579 -13999797.706 10 0 59635 83700.00000 0 19491431.464 -11934646.839 -11309291.299 10 0 59635 84600.00000 0 20587654.686 -12492153.201 -8398881.905 10 0 59635 85500.00000 0 21303129.275 -12979360.017 -5325224.743 99